Regional Weather Roundup
Issued by NWS

Home | Current Version | Previous Version | Text Only | Print | Product List | Glossary Off
Versions: 1 2 3 4 5 6 7 8 9 10 11 12 13 14 15 16 17 18 19 20 21 22 23 24 25 26 27 28 29 30 31 32 33 34 35 36 37 38 39 40 41 42 43 44 45 46 47 48 49 50

000
ASUS43 KLOT 181858
RWRIL

ILLINOIS REGIONAL WEATHER ROUNDUP
NATIONAL WEATHER SERVICE CHICAGO/ROMEOVILLE IL
200 PM CDT FRI APR 18 2014

NOTE: "FAIR" INDICATES FEW OR NO CLOUDS BELOW 12,000 FEET WITH NO
SIGNIFICANT WEATHER AND/OR OBSTRUCTIONS TO VISIBILITY.

* THESE STATIONS ARE NOT UNDER NWS QUALITY CONTROL. THEY ALSO MAY NOT
  REPORT WEATHER SUCH AS PRECIPITATION OR FOG.

ILZ001-002-007-009-015-016-024-182000-
NORTHWEST ILLINOIS

CITY           SKY/WX    TMP DP  RH WIND       PRES   REMARKS
MOLINE         SUNNY     59  29  31 VRB3      30.32F
$$

ILZ003-004-008-010-011-017-018-182000-
NORTH CENTRAL ILLINOIS

CITY           SKY/WX    TMP DP  RH WIND       PRES   REMARKS
ROCKFORD       NOT AVBL
$$

ILZ005-006-012>014-019>023-182000-
NORTHEAST ILLINOIS

CITY           SKY/WX    TMP DP  RH WIND       PRES   REMARKS
CHICAGO-OHARE  MOSUNNY   50  33  52 NE9       30.35S
CHICAGO-MIDWAY MOSUNNY   49  36  61 NE9       30.36S
AURORA         SUNNY     59  35  40 VRB6      30.32F
WAUKEGAN       SUNNY     43  31  62 N9        30.36S
DUPAGE AIRPORT SUNNY     59  36  42 NE6       30.32S
WHEELING       SUNNY     47  33  58 E8        30.37S
NORTHERLY ISL    N/A     43  34  70 NE14        N/A
$$

LMZ740>746-182000-
SOUTHERN LAKE MICHIGAN

STATION/POSITION SKY/WX   TEMP    WIND        PRES    VSBY  WAVE
                          AIR SEA DIR/SP/G                  HT/PER
                          (F)     (DEG/KT/KT) (MB)    (MI)  (FT/S)
WAUKEGAN HARBOR            37      40/ 16/ 19 1029.1F
HARRISON CRIB              36      10/ 15/ 17   N/A
BURNHAM HARBOR             42     360/ 10/ 17   N/A
CALUMET HARBOR             40      20/ 12/ 16 1029.1S
MICHIGAN CITY              40     340/ 11/ 13   N/A
$$

ILZ025>027-034>036-040-047-049-050-058-095>099-182000-
WEST-CENTRAL ILLINOIS

CITY           SKY/WX    TMP DP  RH WIND       PRES   REMARKS
$$

ILZ028>032-037-038-041>044-048-051>054-059>061-182000-
CENTRAL ILLINOIS

CITY           SKY/WX    TMP DP  RH WIND       PRES   REMARKS
PEORIA         NOT AVBL
SPRINGFIELD    SUNNY     67  36  31 NW9       30.31F
TAYLORVILLE    NOT AVBL
$$

ILZ033-039-045-046-055>057-062-063-182000-
EAST-CENTRAL ILLINOIS

CITY           SKY/WX    TMP DP  RH WIND       PRES   REMARKS
CHAMPAIGN      SUNNY     67  39  35 NW14G20   30.30S
$$

ILZ079-100>102-182000-
SOUTHWEST ILLINOIS

CITY           SKY/WX    TMP DP  RH WIND       PRES   REMARKS
ALTON          SUNNY     66  39  37 VRB3      30.30F
CAHOKIA*       SUNNY     68  44  42 E6        30.29F
$$

ILZ064>066-069>071-074>076-080>082-084>086-088>090-092>094-182000-
SOUTH-CENTRAL ILLINOIS

CITY           SKY/WX    TMP DP  RH WIND       PRES   REMARKS
CARBONDALE     SUNNY     69  42  37 MISG      30.26F
MARION         MOSUNNY   70  41  35 NW9       30.27F
$$

ILZ067-068-072-073-078-083-087-091-182000-
SOUTHEAST ILLINOIS

CITY           SKY/WX    TMP DP  RH WIND       PRES   REMARKS
$$

ABBREVIATIONS USED IN REMARKS
   TC - TEMPERATURE IN CELSIUS
  WCI - WIND CHILL INDEX
   HX - HEAT INDEX
  VSB - VISIBILITY
$$




USA.gov is the U.S. government's official web portal to all federal, state and local government web resources and services.